Regional Weather Roundup
Issued by NWS Sterling, VA

Home | Current Version | Previous Version | Graphics & Text | Print | Product List | Glossary On
Versions: 1 2 3 4 5 6 7 8 9 10 11 12 13 14 15 16 17 18 19 20 21 22 23 24 25 26 27 28 29 30 31 32 33 34 35 36 37 38 39 40 41 42 43 44 45 46 47 48 49 50
000
ASUS41 KLWX 280910
RWRLWX

REGIONAL WEATHER ROUNDUP
NATIONAL WEATHER SERVICE BALTIMORE MD/WASHINGTON DC
400 AM EST SUN DEC 28 2014

Note: "FAIR" indicates few or no clouds below 12,000 feet
with no significant weather and/or obstructions to visibility.
 TC=TEMPERATURE CELSIUS

 * =Non NWS site. Station does not report precipitation (e.g. rain,
    snow, etc.), thunder, or fog.

DCZ001-MDZ009-015-VAZ040>042-051-053>054-281000-
WASHINGTON METRO

CITY           SKY/WX    TMP DP  RH WIND       PRES   REMARKS
WASHINGTON NAT MOCLDY    49  38  65 S9        29.94F
DULLES         CLOUDY    47  38  71 W6        29.94F
ANDREWS AFB    PTCLDY    48  38  67 S12       29.93F
FT BELVOIR     MOCLDY    41  37  84 SE2       29.95F
QUANTICO       PTCLDY    46  39  76 SW8       29.96F
COLLEGE PARK*  MOCLDY    41  37  87 CALM      29.93F
LEESBURG*      CLOUDY    43  37  81 CALM      29.94F
MANASSAS*      CLOUDY    52  39  62 S6        29.93F
GAITHERSBURG*  CLOUDY    45  37  76 CALM      29.96F

$$

MDZ006>007-011-014-281000-
BALTIMORE METRO

CITY           SKY/WX    TMP DP  RH WIND       PRES   REMARKS
BWI AIRPORT    MOCLDY    40  35  83 CALM      29.93F
MD SCIENCE CTR   N/A     44  38  79 MISG      29.96F
MARTIN STATE   MOCLDY    39  39 100 CALM      29.97F
ANNAPOLIS      CLOUDY    45  40  82 E5        29.95F
FORT MEADE*    CLOUDY    36  34  93 CALM      29.96F

$$

MDZ012-015-019>023-281000-
MARYLAND EASTERN SHORE

CITY           SKY/WX    TMP DP  RH WIND       PRES   REMARKS
OCEAN CITY     PTCLDY    48  41  76 SW8       30.02F
SALISBURY      MOCLDY    50  39  66 S10       30.00F
BAY BRIDGE AP*   N/A     48  37  66 S5        29.95F
CAMBRIDGE*     CLOUDY    48  41  76 S8        29.97F
EASTON*        CLOUDY    51  42  70 SW9       29.99F

$$

MDZ017>025-281000-
SOUTHERN MARYLAND

CITY           SKY/WX    TMP DP  RH WIND       PRES   REMARKS
PATUXENT RIVER PTCLDY    52  37  56 SW14      29.97F
ST INIGOES     PTCLDY    51  37  58 S10       29.98F
LEONARDTOWN*   PTCLDY    52  36  54 SW8       29.98F

$$

MDZ003>005-281000-
NORTH CENTRAL MARYLAND

CITY           SKY/WX    TMP DP  RH WIND       PRES   REMARKS
FREDERICK*     CLOUDY    43  34  70 CALM      29.96F
HAGERSTOWN APT CLOUDY    47  35  63 S3        29.92F
WESTMINSTER*   CLOUDY    48  37  66 S7        29.92F

$$

MDZ501>502-281000-
WESTERN MARYLAND

CITY           SKY/WX    TMP DP  RH WIND       PRES   REMARKS
OAKLAND*       CLOUDY    41  37  87 W13G23    29.96F
CUMBERLAND*    CLOUDY    45  36  70 SE6       29.98F

$$

VAZ025>031-281000-
SHENANDOAH VALLEY

CITY           SKY/WX    TMP DP  RH WIND       PRES   REMARKS
WINCHESTER*    CLOUDY    54  23  30 W8        29.93F
FRONT ROYAL*   CLOUDY    52  32  46 S6        29.91F
LURAY*         PTSUNNY   54  34  47 S6        29.94S
NEW MARKET*    PTSUNNY   46  33  61 SW6       29.94F
STAUNTON*      PTCLDY    50  32  49 SW3       29.99R
WAYNESBORO*    FAIR      42  31  63 CALM      29.95F

$$

WVZ021-048>050-054>055-281000-
EASTERN WEST VIRGINIA PANHANDLE

CITY           SKY/WX    TMP DP  RH WIND       PRES   REMARKS
MARTINSBURG    CLOUDY    45  32  60 N3        29.93F
PETERSBURG*    MOCLDY    40  35  82 E5        29.94F

$$

VAZ036>039-050-281000-
CENTRAL FOOTHILLS

CITY           SKY/WX    TMP DP  RH WIND       PRES   REMARKS
CHARLOTTESVILL PTCLDY    49  37  63 S10       29.95F
CULPEPER*      MOCLDY    50  39  66 SW6       29.94F
ORANGE*        MOCLDY    45  37  76 SW3       29.97F
GORDONSVILLE*  FAIR      46  37  73 W5        29.95F
WARRENTON*     FAIR      51  43  74 S6        29.93F

$$

VAZ055>057-281000-
NORTH AND CENTRAL PIEDMONT

CITY           SKY/WX    TMP DP  RH WIND       PRES   REMARKS
FREDERICKSBRG* PTCLDY    54  39  58 S9        29.95F
STAFFORD*      PTCLDY    50  37  60 CALM      29.98F

$$

NCZ024-NYZ072-PAZ021-071-VAZ022-071-281000-
OTHER REGIONAL OBSERVATIONS

CITY           SKY/WX    TMP DP  RH WIND       PRES   REMARKS
NEW YORK CITY  CLOUDY    49  35  58 SW9G17    29.94F
PHILADELPHIA   CLOUDY    41  35  79 CALM      29.95F
PITTSBURGH     LGT RAIN  46  45  96 SW8       29.94F FOG
ROANOKE        PTCLDY    50  33  52 CALM      30.02F
RICHMOND       MOCLDY    48  38  68 S8        30.01F
RALEIGH        CLOUDY    51  41  68 SW7       30.10F

$$

ANZ530>537-281000-
MARINE OBSERVATIONS

STATION/POSITION TIME  TEMP    WIND        PRES
                       AIR SEA DIR/SP/G
                 (UTC) (F)     (DEG/KT/KT) (MB)
THOMAS PT LIGHT  0900   46 43  180/ 13/ 14 1015.1F
BALT KEY BRIDGE  0900   42        CALM     1014.3F
COVE POINT       0900   52     220/ 15/ 18 1015.0F
LEWISETTA        0900   53 44  230/ 14/ 16 1015.1F
SOLOMONS ISLAND  0900      44                N/A
PINEY POINT      0900          230/  6/  7   N/A

$$




USA.gov is the U.S. government's official web portal to all federal, state and local government web resources and services.